Список аэропортов
Фактическая погода:

21 января, 12:50
Температура: +17°C (+15.5*)
Ветер: южный 10 м/с
Давление: *758 мм
неб. облачность
600 м
Время (МСК)Темп. СВетерВлажностьДавлениеОблачностьОсадки
09:00+15Ю, 7 м/с65%1012 гПаоблачно
10:00+15Ю, 8 м/с63%1011 гПаоблачно
11:00+16Ю, 8 м/с60%1011 гПас прояснениями
12:00+16Ю, 8 м/с59%1010 гПаоблачно
13:00+17Ю, 9 м/с57%1009 гПас прояснениями
14:00+17Ю, 9 м/с56%1008 гПас прояснениями
15:00+17Ю, 9 м/с56%1007 гПас прояснениями
16:00+16Ю, 9 м/с58%1006 гПас прояснениями
17:00+16Ю, 9 м/с59%1005 гПамалооблачно
18:00+15Ю, 10 м/с60%1005 гПаясно
19:00+15Ю, 9 м/с61%1005 гПамалооблачно
20:00+14Ю, 8 м/с63%1005 гПаясно
21:00+14ЮЗ, 7 м/с64%1005 гПаясно
22:00+14Ю, 6 м/с64%1005 гПаясно
23:00+13Ю, 5 м/с64%1005 гПаясно
22 января
00:00+13Ю, 5 м/с66%1004 гПаясно
01:00+14Ю, 6 м/с64%1004 гПас прояснениями
02:00+14ЮЗ, 6 м/с68%1004 гПамалооблачно
03:00+14ЮЗ, 5 м/с68%1003 гПас прояснениями
04:00+14Ю, 6 м/с66%1002 гПаоблачно
05:00+14Ю, 9 м/с71%1001 гПаоблачносл. дождь
06:00+15ЮЗ, 8 м/с70%1000 гПаоблачносл. дождь
07:00+15З, 6 м/с69%1000 гПаоблачнодождь
08:00+15З, 6 м/с68%1000 гПаясно
09:00+15З, 9 м/с60%1001 гПамалооблачно
10:00+14З, 11 м/с54%1001 гПамалооблачно
11:00+15З, 11 м/с54%1002 гПаясно
12:00+15З, 11 м/с51%1002 гПамалооблачно
13:00+14З, 11 м/с50%1002 гПас прояснениями
14:00+14З, 13 м/с54%1002 гПаоблачно
15:00+14З, 13 м/с56%1002 гПас прояснениями
16:00+14З, 13 м/с57%1003 гПамалооблачно
17:00+14З, 13 м/с58%1003 гПас прояснениями
18:00+13З, 12 м/с59%1004 гПаоблачно
19:00+13СЗ, 11 м/с59%1005 гПаоблачно
20:00+13З, 10 м/с60%1006 гПас прояснениями
21:00+13З, 9 м/с61%1006 гПас прояснениями
22:00+13СЗ, 9 м/с66%1007 гПаоблачнодождь
23:00+13СЗ, 8 м/с69%1008 гПаоблачнодождь
23 января
00:00+13СЗ, 7 м/с66%1008 гПаоблачнодождь
01:00+13С, 7 м/с63%1009 гПаоблачнодождь
02:00+13С, 7 м/с62%1009 гПаоблачносл. дождь
03:00+13СЗ, 7 м/с62%1010 гПаоблачносл. дождь
04:00+12СЗ, 8 м/с64%1010 гПаоблачносл. дождь
05:00+12СЗ, 8 м/с65%1010 гПаоблачно
06:00+12СЗ, 7 м/с64%1011 гПас прояснениями
07:00+12СЗ, 7 м/с64%1011 гПас прояснениями
08:00+12СЗ, 8 м/с64%1012 гПас прояснениями
09:00+12СЗ, 7 м/с63%1013 гПас прояснениями